Date String (YYYY-MM-DD hh:mm:ss) UTC,Instrument flags,absolute air pressure of the measurement (hPa),sample flow rate (lpm),inlet stack bypass flow (lpm),air temperature of the measurement (°C),ambient temperature measured by the external sensor (°C),aerosol sample conditioner tube jacket temperature (°C),OPC LED temperature (°C),internal box temperature (°C),relative humidity of the measurement (%),span deviation,mass concentration of particles derived from Lorenz-Mie calculation of OPC scattering (μg/m³),mass concentration of particles derived from Lorenz-Mie calculation of OPC scattering (μg/m³),mass concentration of particles derived from Lorenz-Mie calculation of OPC scattering (μg/m³)
DateTimeUTC,F1_M11,P_M11,Q1_M11,Q2_M11,T1_M11,T2_M11,T3_M11,T4_M11,T5_M11,U1_M11,ZSPAN_M11,X0_M11,X2_M11,X1_M11
2024-02-06 03:00:00,SystemResetWarning,0828.2,4.99,000.00,023.0,022.2,000.0,031.4,024.8,16.9,0000.0,0008.03,0004.16,0003.90
2024-02-06 03:01:00,SystemResetWarning,0828.2,5.00,000.00,023.0,022.2,000.0,031.4,024.8,17.0,0000.0,0007.90,0004.03,0003.77
2024-02-06 03:02:00,SystemResetWarning,0828.2,4.99,000.00,022.9,022.2,000.0,031.4,024.7,17.1,0000.0,0007.29,0003.88,0003.64
2024-02-06 03:03:00,SystemResetWarning,0828.2,5.00,000.00,022.9,022.2,000.0,031.4,024.7,17.1,0000.0,0006.57,0003.78,0003.52
2024-02-06 03:04:00,SystemResetWarning,0828.2,5.00,000.00,022.9,022.2,000.0,031.4,024.7,17.1,0000.0,0007.20,0003.68,0003.40
2024-02-06 03:05:00,SystemResetWarning,0828.2,5.00,000.00,022.9,022.2,000.0,031.4,024.7,17.1,0000.0,0006.89,0003.56,0003.29
2024-02-06 03:06:00,SystemResetWarning,0828.2,5.00,000.00,022.9,022.1,000.0,031.4,024.7,16.9,0000.0,0006.10,0003.44,0003.18
2024-02-06 03:07:00,SystemResetWarning,0828.2,5.00,000.00,022.9,022.1,000.0,031.4,024.7,16.8,0000.0,0005.57,0003.38,0003.13
2024-02-06 03:08:00,SystemResetWarning,0828.3,5.00,000.00,022.9,022.1,000.0,031.4,024.6,16.8,0000.0,0005.59,0003.37,0003.13
2024-02-06 03:09:00,SystemResetWarning,0828.3,5.00,000.00,022.8,022.1,000.0,031.3,024.6,17.1,0000.0,0005.64,0003.33,0003.10
2024-02-06 03:10:00,SystemResetWarning,0828.3,5.00,000.00,022.8,022.1,000.0,031.3,024.6,17.5,0000.0,0006.37,0003.33,0003.10
2024-02-06 03:11:00,SystemResetWarning,0828.4,4.99,000.00,022.8,022.1,000.0,031.3,024.6,17.8,0000.0,0006.22,0003.32,0003.10
2024-02-06 03:12:00,SystemResetWarning,0828.3,5.01,000.00,022.8,022.0,000.0,031.3,024.6,18.1,0000.0,0006.39,0003.35,0003.11
2024-02-06 03:13:00,SystemResetWarning,0828.3,5.00,000.00,022.8,022.0,000.0,031.3,024.6,18.2,0000.0,0006.96,0003.44,0003.19
2024-02-06 03:14:00,SystemResetWarning,0828.2,5.01,000.00,022.8,022.0,000.0,031.3,024.6,18.2,0000.0,0007.32,0003.58,0003.31
2024-02-06 03:15:00,SystemResetWarning,0828.2,5.01,000.00,022.8,022.0,000.0,031.3,024.5,18.2,0000.0,0007.38,0003.78,0003.50
2024-02-06 03:16:00,SystemResetWarning,0828.1,4.99,000.00,022.8,022.0,000.0,031.3,024.6,18.3,0000.0,0008.63,0004.01,0003.71
2024-02-06 03:17:00,SystemResetWarning,0828.2,4.99,000.00,022.7,022.0,000.0,031.2,024.5,18.4,0000.0,0009.12,0004.29,0003.94
2024-02-06 03:18:00,SystemResetWarning,0828.1,5.00,000.00,022.7,022.0,000.0,031.2,024.5,18.4,0000.0,0010.06,0004.57,0004.18
2024-02-06 03:19:00,SystemResetWarning,0828.1,5.00,000.00,022.7,022.0,000.0,031.2,024.5,18.4,0001.4,0010.42,0004.84,0004.42
2024-02-06 03:20:00,SystemResetWarning,0828.1,5.01,000.00,022.7,022.0,000.0,031.2,024.5,18.4,0003.8,0010.77,0005.15,0004.69
2024-02-06 03:21:00,SystemResetWarning,0828.1,5.00,000.00,022.7,022.0,000.0,031.2,024.5,18.4,0003.2,0011.44,0005.48,0004.95
2024-02-06 03:22:00,SystemResetWarning,0828.0,5.01,000.00,022.7,022.0,000.0,031.2,024.5,18.3,0003.1,0011.96,0005.80,0005.21
2024-02-06 03:23:00,SystemResetWarning,0828.1,5.00,000.00,022.7,022.0,000.0,031.2,024.5,18.3,0003.2,0012.90,0006.09,0005.46
2024-02-06 03:24:00,SystemResetWarning,0828.1,4.99,000.00,022.7,022.0,000.0,031.2,024.5,18.2,0002.9,0013.12,0006.27,0005.64
2024-02-06 03:25:00,SystemResetWarning,0828.1,5.00,000.00,022.7,022.0,000.0,031.2,024.5,18.0,0002.7,0013.64,0006.36,0005.72
2024-02-06 03:26:00,SystemResetWarning,0828.1,5.00,000.00,022.7,021.9,000.0,031.2,024.5,17.9,0002.1,0013.56,0006.38,0005.74
2024-02-06 03:27:00,SystemResetWarning,0828.1,4.99,000.00,022.7,021.9,000.0,031.2,024.5,17.8,0001.6,0012.81,0006.34,0005.70
2024-02-06 03:28:00,SystemResetWarning,0828.0,5.00,000.00,022.7,021.9,000.0,031.2,024.5,17.8,0001.0,0012.35,0006.19,0005.59
2024-02-06 03:29:00,SystemResetWarning,0828.1,5.00,000.00,022.7,022.0,000.0,031.1,024.5,17.9,0000.9,0011.58,0005.99,0005.43
2024-02-06 03:30:00,SystemResetWarning,0828.1,5.01,000.00,022.7,021.9,000.0,031.1,024.5,17.8,0000.6,0011.28,0005.83,0005.28
2024-02-06 03:31:00,SystemResetWarning,0828.1,5.00,000.00,022.7,021.9,000.0,031.1,024.5,17.6,0000.0,0010.96,0005.58,0005.09
2024-02-06 03:32:00,SystemResetWarning,0828.2,5.00,000.00,022.6,021.9,000.0,031.1,024.5,17.6,0000.0,0010.32,0005.35,0004.91
2024-02-06 03:33:00,SystemResetWarning,0828.2,4.99,000.00,022.6,021.9,000.0,031.1,024.5,17.7,0000.0,0009.56,0005.14,0004.75
2024-02-06 03:34:00,SystemResetWarning,0828.2,4.99,000.00,022.6,021.9,000.0,031.1,024.4,17.7,0000.0,0008.84,0004.90,0004.58
2024-02-06 03:35:00,SystemResetWarning,0828.2,5.00,000.00,022.6,021.9,000.0,031.1,024.4,17.7,0000.0,0008.12,0004.69,0004.40
2024-02-06 03:36:00,SystemResetWarning,0828.2,5.00,000.00,022.6,021.9,000.0,031.1,024.4,17.8,0000.0,0007.58,0004.53,0004.25
2024-02-06 03:37:00,SystemResetWarning,0828.2,5.00,000.00,022.6,021.9,000.0,031.1,024.4,17.8,0000.0,0007.05,0004.38,0004.14
2024-02-06 03:38:00,SystemResetWarning,0828.2,5.01,000.00,022.6,021.9,000.0,031.1,024.4,17.9,0000.0,0006.95,0004.27,0004.04
2024-02-06 03:39:00,SystemResetWarning,0828.2,5.00,000.00,022.6,021.9,000.0,031.1,024.4,17.6,0000.0,0007.14,0004.21,0003.97
2024-02-06 03:40:00,SystemResetWarning,0828.2,5.00,000.00,022.6,021.8,000.0,031.1,024.4,17.6,0000.0,0007.60,0004.20,0003.96
2024-02-06 03:41:00,SystemResetWarning,0828.2,5.00,000.00,022.6,021.8,000.0,031.1,024.4,17.3,0000.0,0007.89,0004.25,0003.99
2024-02-06 03:42:00,SystemResetWarning,0828.2,4.99,000.00,022.6,021.8,000.0,031.0,024.3,16.9,0000.0,0008.01,0004.30,0004.00
2024-02-06 03:43:00,SystemResetWarning,0828.1,5.00,000.00,022.5,021.8,000.0,031.0,024.3,16.3,0000.0,0007.96,0004.25,0003.95
2024-02-06 03:44:00,SystemResetWarning,0828.2,5.01,000.00,022.5,021.8,000.0,031.0,024.3,16.2,0000.0,0007.90,0004.18,0003.89
2024-02-06 03:45:00,SystemResetWarning,0828.2,5.00,000.00,022.5,021.8,000.0,031.0,024.3,16.1,0000.0,0007.80,0004.10,0003.81
2024-02-06 03:46:00,SystemResetWarning,0828.2,5.00,000.00,022.5,021.8,000.0,031.0,024.3,16.2,0000.0,0007.73,0004.01,0003.71
2024-02-06 03:47:00,SystemResetWarning,0828.2,5.00,000.00,022.5,021.8,000.0,031.0,024.3,16.4,0000.0,0007.56,0003.86,0003.56
2024-02-06 03:48:00,SystemResetWarning,0828.3,5.00,000.00,022.5,021.7,000.0,031.0,024.2,16.4,0000.0,0007.38,0003.71,0003.43
2024-02-06 03:49:00,SystemResetWarning,0828.2,5.00,000.00,022.5,021.7,000.0,031.0,024.2,16.3,0000.0,0006.84,0003.57,0003.29
2024-02-06 03:50:00,SystemResetWarning,0828.2,5.00,000.00,022.5,021.7,000.0,031.0,024.2,16.2,0000.0,0006.16,0003.43,0003.16
2024-02-06 03:51:00,SystemResetWarning,0828.2,5.00,000.00,022.4,021.7,000.0,030.9,024.2,16.3,0000.0,0005.16,0003.29,0002.99
2024-02-06 03:52:00,SystemResetWarning,0828.2,5.00,000.00,022.4,021.7,000.0,030.9,024.2,16.6,0000.0,0004.36,0003.12,0002.75
2024-02-06 03:53:00,SystemResetWarning,0828.2,5.00,000.00,022.4,021.7,000.0,030.9,024.2,16.9,0000.0,0003.82,0002.80,0002.46
2024-02-06 03:54:00,SystemResetWarning,0828.2,5.00,000.00,022.4,021.6,000.0,030.9,024.2,17.0,0000.0,0003.57,0002.67,0002.32
2024-02-06 03:55:00,SystemResetWarning,0828.2,5.00,000.00,022.4,021.6,000.0,030.9,024.2,17.0,0000.0,0003.32,0002.51,0002.19
2024-02-06 03:56:00,SystemResetWarning,0828.2,5.00,000.00,022.4,021.6,000.0,030.9,024.1,17.0,0000.0,0003.29,0002.47,0002.15
2024-02-06 03:57:00,SystemResetWarning,0828.2,5.00,000.00,022.4,021.6,000.0,030.9,024.1,17.0,0000.0,0003.35,0002.52,0002.19
2024-02-06 03:58:00,SystemResetWarning,0828.3,5.00,000.00,022.4,021.6,000.0,030.9,024.1,16.9,0000.0,0004.65,0002.65,0002.30
2024-02-06 03:59:00,SystemResetWarning,0828.3,5.00,000.00,022.4,021.5,000.0,030.8,024.1,17.0,0000.0,0005.38,0002.82,0002.43
